2016-03-08 00:01:37 r, 18.60m,0000000003Hz,0000150808c,0000000.327s, 016.4C,00002191
2016-03-08 00:11:37 r, 19.06m,0000000002Hz,0000229555c,0000000.498s, 016.1C,00002191
2016-03-08 00:21:37 r, 18.70m,0000000003Hz,0000166036c,0000000.360s, 016.1C,00002191
2016-03-08 00:31:37 r, 18.62m,0000000003Hz,0000154484c,0000000.335s, 016.1C,00002191
2016-03-08 00:41:37 r, 18.61m,0000000003Hz,0000153566c,0000000.333s, 016.1C,00002191
2016-03-08 00:51:37 r, 18.76m,0000000003Hz,0000175774c,0000000.381s, 016.1C,00002191
2016-03-08 01:01:37 r, 18.82m,0000000002Hz,0000184347c,0000000.400s, 016.1C,00002191
2016-03-08 01:11:37 r, 18.75m,0000000002Hz,0000173727c,0000000.377s, 016.1C,00002191
2016-03-08 01:21:37 r, 18.72m,0000000002Hz,0000168800c,0000000.366s, 016.1C,00002191
2016-03-08 01:31:37 r, 18.52m,0000000003Hz,0000141151c,0000000.306s, 016.1C,00002191
2016-03-08 01:41:37 r, 18.57m,0000000003Hz,0000146966c,0000000.319s, 016.4C,00002191
2016-03-08 01:51:37 r, 18.66m,0000000003Hz,0000160429c,0000000.348s, 016.4C,00002191
2016-03-08 02:01:37 r, 18.58m,0000000004Hz,0000147738c,0000000.321s, 016.4C,00002191
2016-03-08 02:11:37 r, 18.61m,0000000003Hz,0000151696c,0000000.329s, 016.4C,00002191
2016-03-08 02:21:37 r, 18.57m,0000000003Hz,0000146875c,0000000.319s, 016.7C,00002191
2016-03-08 02:31:38 r, 18.64m,0000000003Hz,0000157498c,0000000.342s, 016.7C,00002191
2016-03-08 02:41:37 r, 18.69m,0000000003Hz,0000164171c,0000000.356s, 016.7C,00002191
2016-03-08 02:51:37 r, 18.87m,0000000002Hz,0000193691c,0000000.420s, 016.7C,00002191
2016-03-08 03:01:37 r, 18.78m,0000000002Hz,0000178544c,0000000.387s, 016.7C,00002191
2016-03-08 03:11:37 r, 18.68m,0000000003Hz,0000162283c,0000000.352s, 016.7C,00002191
2016-03-08 03:21:37 r, 18.81m,0000000002Hz,0000183354c,0000000.398s, 016.7C,00002191
2016-03-08 03:31:37 r, 18.82m,0000000003Hz,0000185264c,0000000.402s, 016.7C,00002191
2016-03-08 03:41:37 r, 18.78m,0000000003Hz,0000178639c,0000000.388s, 016.7C,00002191
2016-03-08 03:51:37 r, 18.72m,0000000003Hz,0000169038c,0000000.367s, 016.4C,00002191
2016-03-08 04:01:37 r, 18.70m,0000000003Hz,0000165226c,0000000.359s, 016.4C,00002191
2016-03-08 04:11:37 r, 18.66m,0000000003Hz,0000159720c,0000000.347s, 016.4C,00002191
2016-03-08 04:21:37 r, 18.57m,0000000003Hz,0000146703c,0000000.318s, 016.4C,00002191
2016-03-08 04:31:37 r, 18.59m,0000000004Hz,0000150453c,0000000.327s, 016.1C,00002191
2016-03-08 04:41:37 r, 18.72m,0000000002Hz,0000169807c,0000000.369s, 016.1C,00002191
2016-03-08 04:51:37 r, 18.84m,0000000002Hz,0000188124c,0000000.408s, 016.1C,00002191
2016-03-08 05:01:37 r, 18.66m,0000000003Hz,0000159497c,0000000.346s, 016.1C,00002191
2016-03-08 05:11:37 r, 18.70m,0000000003Hz,0000166324c,0000000.361s, 016.1C,00002191
2016-03-08 05:21:37 r, 18.58m,0000000003Hz,0000147636c,0000000.320s, 016.4C,00002191
2016-03-08 05:31:37 r, 18.72m,0000000003Hz,0000169958c,0000000.369s, 016.4C,00002191
2016-03-08 05:41:37 r, 18.50m,0000000003Hz,0000138135c,0000000.300s, 016.4C,00002191
2016-03-08 05:51:37 r, 18.33m,0000000004Hz,0000118074c,0000000.256s, 016.4C,00002191
2016-03-08 06:01:38 r, 17.51m,0000000008Hz,0000055752c,0000000.121s, 016.4C,00002191
2016-03-08 06:11:37 r, 16.52m,0000000020Hz,0000022253c,0000000.048s, 016.4C,00002191
2016-03-08 06:21:37 r, 14.41m,0000000145Hz,0000000000c,0000000.000s, 016.4C,00002191
2016-03-08 06:31:38 r, 12.13m,0000001197Hz,0000000000c,0000000.000s, 016.4C,00002191
2016-03-08 06:41:37 r, 10.38m,0000005949Hz,0000000000c,0000000.000s, 016.1C,00002191
2016-03-08 06:51:37 r, 08.85m,0000024363Hz,0000000000c,0000000.000s, 015.4C,00002191
2016-03-08 07:01:37 r, 07.69m,0000071471Hz,0000000000c,0000000.000s, 015.4C,00002191
2016-03-08 07:11:37 r, 07.02m,0000131474Hz,0000000000c,0000000.000s, 015.4C,00002191
2016-03-08 07:21:37 r, 06.61m,0000190894Hz,0000000000c,0000000.000s, 015.1C,00002191
2016-03-08 07:31:37 r, 06.19m,0000282682Hz,0000000000c,0000000.000s, 015.1C,00002191
2016-03-08 07:41:37 r, 05.87m,0000378047Hz,0000000000c,0000000.000s, 014.8C,00002191
2016-03-08 07:51:37 r, 00.00m,0000575918Hz,0000000000c,0000000.000s, 014.8C,00002191
2016-03-08 08:01:38 r, 00.00m,0000596216Hz,0000000000c,0000000.000s, 014.8C,00002191
2016-03-08 08:11:37 r, 00.00m,0000596233Hz,0000000000c,0000000.000s, 015.1C,00002191
2016-03-08 08:21:37 r, 00.00m,0000596132Hz,0000000000c,0000000.000s, 015.4C,00002191
2016-03-08 08:31:37 r, 00.00m,0000596240Hz,0000000000c,0000000.000s, 015.4C,00002191
2016-03-08 08:41:37 r, 00.00m,0000596225Hz,0000000000c,0000000.000s, 015.7C,00002191
2016-03-08 08:51:37 r, 00.00m,0000596174Hz,0000000000c,0000000.000s, 015.7C,00002191
2016-03-08 09:01:37 r, 00.00m,0000596106Hz,0000000000c,0000000.000s, 016.1C,00002191
2016-03-08 09:11:37 r, 00.00m,0000596172Hz,0000000000c,0000000.000s, 016.1C,00002191
2016-03-08 09:21:37 r, 00.00m,0000596225Hz,0000000000c,0000000.000s, 016.4C,00002191
2016-03-08 09:31:37 r, 00.00m,0000595976Hz,0000000000c,0000000.000s, 017.4C,00002191
2016-03-08 09:41:37 r, 00.00m,0000595861Hz,0000000000c,0000000.000s, 018.0C,00002191
2016-03-08 09:51:37 r, 00.00m,0000595964Hz,0000000000c,0000000.000s, 017.7C,00002191
2016-03-08 10:01:38 r, 00.00m,0000595981Hz,0000000000c,0000000.000s, 017.4C,00002191
2016-03-08 10:11:37 r, 00.00m,0000596073Hz,0000000000c,0000000.000s, 017.0C,00002191
2016-03-08 10:21:37 r, 00.00m,0000595949Hz,0000000000c,0000000.000s, 017.4C,00002191
2016-03-08 10:31:38 r, 00.00m,0000596087Hz,0000000000c,0000000.000s, 016.4C,00002191
2016-03-08 10:41:37 r, 00.00m,0000596139Hz,0000000000c,0000000.000s, 016.1C,00002191
2016-03-08 10:51:37 r, 00.00m,0000596128Hz,0000000000c,0000000.000s, 016.1C,00002191
2016-03-08 11:01:38 r, 00.00m,0000596146Hz,0000000000c,0000000.000s, 016.4C,00002191
2016-03-08 11:11:37 r, 00.00m,0000595941Hz,0000000000c,0000000.000s, 017.4C,00002191
2016-03-08 11:21:37 r, 00.00m,0000595690Hz,0000000000c,0000000.000s, 019.3C,00002191
2016-03-08 11:31:37 r, 00.00m,0000595412Hz,0000000000c,0000000.000s, 021.2C,00002191
2016-03-08 11:41:37 r, 00.00m,0000595308Hz,0000000000c,0000000.000s, 022.5C,00002191
2016-03-08 11:51:37 r, 00.00m,0000595292Hz,0000000000c,0000000.000s, 022.5C,00002191
2016-03-08 12:01:38 r, 00.00m,0000595442Hz,0000000000c,0000000.000s, 022.8C,00002191
2016-03-08 12:11:37 r, 00.00m,0000595223Hz,0000000000c,0000000.000s, 022.8C,00002191
2016-03-08 12:21:37 r, 00.00m,0000595201Hz,0000000000c,0000000.000s, 024.1C,00002191
2016-03-08 12:31:37 r, 00.00m,0000595204Hz,0000000000c,0000000.000s, 024.1C,00002191
2016-03-08 12:41:37 r, 00.00m,0000595201Hz,0000000000c,0000000.000s, 023.8C,00002191
2016-03-08 12:51:37 r, 00.00m,0000595202Hz,0000000000c,0000000.000s, 023.5C,00002191
2016-03-08 13:01:37 r, 00.00m,0000595351Hz,0000000000c,0000000.000s, 022.5C,00002191
2016-03-08 13:11:37 r, 00.00m,0000595400Hz,0000000000c,0000000.000s, 021.5C,00002191
2016-03-08 13:21:37 r, 00.00m,0000595538Hz,0000000000c,0000000.000s, 020.9C,00002191
2016-03-08 13:31:37 r, 00.00m,0000595490Hz,0000000000c,0000000.000s, 020.9C,00002191
2016-03-08 13:41:37 r, 00.00m,0000595549Hz,0000000000c,0000000.000s, 020.9C,00002191
2016-03-08 13:51:37 r, 00.00m,0000595722Hz,0000000000c,0000000.000s, 020.3C,00002191
2016-03-08 14:01:37 r, 00.00m,0000595671Hz,0000000000c,0000000.000s, 019.9C,00002191
2016-03-08 14:11:37 r, 00.00m,0000595600Hz,0000000000c,0000000.000s, 019.9C,00002191
2016-03-08 14:21:37 r, 00.00m,0000595649Hz,0000000000c,0000000.000s, 019.9C,00002191
2016-03-08 14:31:38 r, 00.00m,0000595732Hz,0000000000c,0000000.000s, 019.3C,00002191
2016-03-08 14:41:37 r, 00.00m,0000595838Hz,0000000000c,0000000.000s, 018.6C,00002191
2016-03-08 14:51:37 r, 00.00m,0000595788Hz,0000000000c,0000000.000s, 018.3C,00002191
2016-03-08 15:01:37 r, 00.00m,0000595932Hz,0000000000c,0000000.000s, 017.7C,00002191
2016-03-08 15:11:37 r, 00.00m,0000595926Hz,0000000000c,0000000.000s, 017.7C,00002191
2016-03-08 15:21:37 r, 00.00m,0000595768Hz,0000000000c,0000000.000s, 018.3C,00002191
2016-03-08 15:31:38 r, 00.00m,0000595802Hz,0000000000c,0000000.000s, 018.3C,00002191
2016-03-08 15:41:37 r, 00.00m,0000595938Hz,0000000000c,0000000.000s, 018.0C,00002191
2016-03-08 15:51:37 r, 00.00m,0000595813Hz,0000000000c,0000000.000s, 018.0C,00002191
2016-03-08 16:01:37 r, 00.00m,0000595928Hz,0000000000c,0000000.000s, 017.7C,00002191
2016-03-08 16:11:37 r, 00.00m,0000595985Hz,0000000000c,0000000.000s, 017.0C,00002191
2016-03-08 16:21:37 r, 00.00m,0000596076Hz,0000000000c,0000000.000s, 016.7C,00002191
2016-03-08 16:31:37 r, 00.00m,0000596112Hz,0000000000c,0000000.000s, 016.4C,00002191
2016-03-08 16:41:37 r, 00.00m,0000596106Hz,0000000000c,0000000.000s, 016.1C,00002191
2016-03-08 16:51:37 r, 00.00m,0000596263Hz,0000000000c,0000000.000s, 015.4C,00002191
2016-03-08 17:01:37 r, 00.00m,0000596252Hz,0000000000c,0000000.000s, 014.8C,00002191
2016-03-08 17:11:37 r, 00.00m,0000596336Hz,0000000000c,0000000.000s, 014.5C,00002191
2016-03-08 17:21:37 r, 00.00m,0000596347Hz,0000000000c,0000000.000s, 013.8C,00002191
2016-03-08 17:31:37 r, 00.00m,0000596384Hz,0000000000c,0000000.000s, 013.5C,00002191
2016-03-08 17:41:37 r, 00.00m,0000596536Hz,0000000000c,0000000.000s, 013.2C,00002191
2016-03-08 17:51:37 r, 00.00m,0000596513Hz,0000000000c,0000000.000s, 012.8C,00002191
2016-03-08 18:01:37 r, 05.83m,0000391721Hz,0000000000c,0000000.000s, 012.2C,00002191
2016-03-08 18:11:37 r, 06.37m,0000240595Hz,0000000000c,0000000.000s, 011.9C,00002191
2016-03-08 18:21:37 r, 07.24m,0000107683Hz,0000000000c,0000000.000s, 011.9C,00002191
2016-03-08 18:31:37 r, 08.36m,0000038350Hz,0000000000c,0000000.000s, 011.6C,00002191
2016-03-08 18:41:37 r, 10.08m,0000007849Hz,0000000000c,0000000.000s, 011.2C,00002191
2016-03-08 18:51:37 r, 12.10m,0000001228Hz,0000000000c,0000000.000s, 010.9C,00002191
2016-03-08 19:01:37 r, 14.02m,0000000209Hz,0000000000c,0000000.000s, 010.9C,00002191
2016-03-08 19:11:37 r, 15.99m,0000000034Hz,0000013584c,0000000.029s, 010.9C,00002191
2016-03-08 19:21:37 r, 17.53m,0000000008Hz,0000056375c,0000000.122s, 010.6C,00002191
2016-03-08 19:31:37 r, 18.74m,0000000003Hz,0000171873c,0000000.373s, 010.6C,00002191
2016-03-08 19:41:37 r, 19.42m,0000000002Hz,0000320849c,0000000.696s, 010.3C,00002191
2016-03-08 19:51:37 r, 19.61m,0000000001Hz,0000379258c,0000000.823s, 009.6C,00002191
2016-03-08 20:01:37 r, 19.46m,0000000001Hz,0000332377c,0000000.721s, 009.6C,00002191
2016-03-08 20:11:39 r, 19.22m,0000000001Hz,0000264893c,0000000.575s, 009.3C,00002191
2016-03-08 20:21:37 r, 19.26m,0000000002Hz,0000274494c,0000000.596s, 009.3C,00002191
2016-03-08 20:31:37 r, 19.28m,0000000002Hz,0000280286c,0000000.608s, 009.0C,00002191
2016-03-08 20:41:38 r, 19.23m,0000000002Hz,0000268910c,0000000.584s, 009.0C,00002191
2016-03-08 20:51:37 r, 19.08m,0000000002Hz,0000231479c,0000000.502s, 009.0C,00002191
2016-03-08 21:01:37 r, 19.05m,0000000002Hz,0000226443c,0000000.491s, 009.0C,00002191
2016-03-08 21:11:37 r, 19.13m,0000000002Hz,0000244893c,0000000.531s, 009.0C,00002191
2016-03-08 21:21:37 r, 18.90m,0000000002Hz,0000196792c,0000000.427s, 009.0C,00002191
2016-03-08 21:31:37 r, 18.96m,0000000003Hz,0000209219c,0000000.454s, 009.0C,00002191
2016-03-08 21:41:38 r, 19.05m,0000000003Hz,0000226503c,0000000.492s, 009.0C,00002191
2016-03-08 21:51:37 r, 19.06m,0000000002Hz,0000229284c,0000000.498s, 009.0C,00002191
2016-03-08 22:01:37 r, 19.12m,0000000002Hz,0000241907c,0000000.525s, 009.0C,00002191
2016-03-08 22:11:38 r, 19.06m,0000000002Hz,0000227592c,0000000.494s, 009.0C,00002191
2016-03-08 22:21:37 r, 19.01m,0000000003Hz,0000219737c,0000000.477s, 009.0C,00002191
2016-03-08 22:31:37 r, 19.16m,0000000002Hz,0000250400c,0000000.543s, 009.0C,00002191
2016-03-08 22:41:38 r, 19.06m,0000000002Hz,0000227373c,0000000.493s, 009.0C,00002191
2016-03-08 22:51:37 r, 19.09m,0000000002Hz,0000235974c,0000000.512s, 009.0C,00002191
2016-03-08 23:01:37 r, 19.01m,0000000002Hz,0000218545c,0000000.474s, 009.0C,00002191
2016-03-08 23:11:37 r, 18.96m,0000000002Hz,0000209267c,0000000.454s, 009.0C,00002191
2016-03-08 23:21:37 r, 19.09m,0000000002Hz,0000236138c,0000000.512s, 009.0C,00002191
2016-03-08 23:31:37 r, 19.12m,0000000002Hz,0000241883c,0000000.525s, 009.0C,00002191
2016-03-08 23:41:38 r, 19.09m,0000000002Hz,0000235233c,0000000.510s, 009.0C,00002191
2016-03-08 23:51:37 r, 19.16m,0000000002Hz,0000251481c,0000000.546s, 009.0C,00002191
